sat.trackr.live / text

‹ back to catalog

STARLINK-3901

NORAD 52574 · 2022-051AQ

PAYLOAD ACTIVE UNKNOWN

§ Identity

Operator
Country
US
Launch date
2022-05-13
Launch site
AFWTR
Launch vehicle
Mass (kg)
RCS (m²)

Purposes: comms

External: N2YO · Heavens-Above · Gunter

§ Orbital elements

Epoch: 2026-05-25T03:17:45.407040Z

Period
95.44 min
Inclination
53.2140°
Eccentricity
0.0001190
Mean motion
15.08834518 rev/d
Perigee alt
538.9 km
Apogee alt
540.6 km
Semi-major
6,917.9 km
B*
2.7996e-5
RAAN
135.9328°
Arg perigee
87.6180°
Mean anomaly
272.4949°
Rev number
22,312

§ Raw data

STARLINK-39011 52574U 22051AQ  26145.13733110  .00000158  00000+0  27996-4 0  99902 52574  53.2140 135.9328 0001190  87.6180 272.4949 15.08834518223122

JSON: /api/v1/satellites/52574 · /tle

For live sub-satellite position, see the globe view (requires WebGL).

§ Visibility from observer

Set your observer location to see the next 7 days of passes ≥ 10°. The values pass through the URL so the page stays shareable.

No JS? Fill the form by hand. The geolocation button needs JavaScript.